Regional Weather Roundup
Issued by NWS

Home | Current Version | Previous Version | Graphics & Text | Print | Product List | Glossary On
Versions: 1 2 3 4 5 6 7 8 9 10 11 12 13 14 15 16 17 18 19 20 21 22 23 24 25 26 27 28 29 30 31 32 33 34 35 36 37 38 39 40 41 42 43 44 45 46 47 48 49 50
000
ASUS43 KBIS 210820
RWRND

NORTH DAKOTA REGIONAL WEATHER ROUNDUP
NATIONAL WEATHER SERVICE BISMARCK ND
300 AM CDT TUE OCT 21 2014

NOTE: "FAIR" INDICATES FEW OR NO CLOUDS BELOW 12,000 FEET WITH NO
SIGNIFICANT WEATHER AND/OR OBSTRUCTIONS TO VISIBILITY.


NDZ001>003-009>011-017-210900-
NORTHWEST NORTH DAKOTA

CITY           SKY/WX    TMP DP  RH WIND       PRES   REMARKS
WILLISTON      CLEAR     40  36  86 CALM      29.79F
MINOT          CLEAR     45  34  65 E6        29.86S
MINOT AFB      CLEAR     42  37  80 SE10      29.85F
$$

NDZ018>021-031>035-040>046-210900-
SOUTHWEST NORTH DAKOTA

CITY           SKY/WX    TMP DP  RH WIND       PRES   REMARKS
BISMARCK       CLEAR     55  34  45 E12       29.89F
DICKINSON      CLEAR     46  37  71 SE10      29.81F
GARRISON         N/A     49  35  58 SE7       29.87F
HETTINGER ARPT CLEAR     44  37  76 E7        29.84F
$$

NDZ004>008-012>016-024-026-027-054-210900-
NORTHEAST NORTH DAKOTA

CITY           SKY/WX    TMP DP  RH WIND       PRES   REMARKS
GRAND FORKS    CLEAR     40  36  86 S9        30.05S
GRND FRKS AFB  CLEAR     37  37  99 S7        30.05S
DEVILS LAKE    CLEAR     46  36  66 SE12      29.96F
$$

NDZ022-023-025-028>030-036>039-047>053-210900-
SOUTHEAST NORTH DAKOTA

CITY           SKY/WX    TMP DP  RH WIND       PRES   REMARKS
FARGO          CLEAR     45  38  76 SE12      30.06R
JAMESTOWN      CLEAR     44  38  79 SE9       30.00R
$$




USA.gov is the U.S. government's official web portal to all federal, state and local government web resources and services.